Location: Altmatt
(47.1333°N, 8.7000°E)
Time: 08:10:05
(UTC+00:00)

COSMOS 2428 - Pass Details

Date: 13 July 2020
Orbit: 844 x 859 km, 70.9° (Epoch: 05 August)

Event Time Altitude Azimuth Distance (km) Brightness Sun altitude
Rises 20:20:24 0° 221° (SW) 3,391 5.8 -8.9°
Reaches altitude 10° 20:22:54 10° 226° (SW) 2,461 5.1 -9.2°
Maximum altitude 20:28:25 52° 303° (WNW) 1,040 3.7 -9.9°
Drops below altitude 10° 20:33:58 10° 20° (NNE) 2,481 5.5 -10.5°
Sets 20:36:31 0° 25° (NNE) 3,422 6.2 -10.8°
